Preview of NWS' New Version of Forecast
This preview is not operational and should not be used for support decisions.

Regional Weather Roundup (RWR)

Issued by National Weather Service (NWS)

                            
000
ASUS43 KTOP 211659
RWRKS 

WEATHER ROUNDUP FOR KANSAS
NATIONAL WEATHER SERVICE GOODLAND KS
1200 PM CDT WED AUG 21 2019

NOTE:  "FAIR" INDICATES FEW OR NO CLOUDS BELOW 12,000 FEET WITH NO
SIGNIFICANT WEATHER AND/OR OBSTRUCTIONS TO VISIBILITY.

KSZ001>006-013>018-027>032-041>047-211800-
NORTHWEST KANSAS
  
CITY           SKY/WX    TMP DP  RH WIND       PRES   REMARKS
GOODLAND         N/A    N/A N/A N/A MISG      30.12                   
HAYS           SUNNY     78  67  68 SE8       29.88R                  
HILL CITY      SUNNY     74  67  78 SE12      30.02F                  
RUSSELL        MOSUNNY   72  65  78 SE13      29.99F                  
$$

KSZ061>065-074>080-084>089-211800-
SOUTHWEST KANSAS
  
CITY           SKY/WX    TMP DP  RH WIND       PRES   REMARKS
DODGE CITY     SUNNY     79  63  57 E20G31    30.06F                  
GARDEN CITY    SUNNY     81  64  56 E20       30.06S                  
GREAT BEND     SUNNY     74  66  76 SE17      30.04F                  
LIBERAL        SUNNY     91  62  37 S7        30.04R                  
$$

KSZ066>073-081>083-090>101-211800-
SOUTHEAST KANSAS
  
CITY           SKY/WX    TMP DP  RH WIND       PRES   REMARKS
CHANUTE        SUNNY     90  72  55 VRB6      30.05S HX  97           
COFFEYVILLE    SUNNY     87  74  64 CALM      30.03S HX  95           
HUTCHINSON     MOSUNNY   79  66  64 N9        30.11R                  
MEDICINE LODGE   N/A     89  67  47 N23G35    30.04F                  
NEWTON         PTSUNNY   82  71  69 N22       30.12R                  
PARSONS        SUNNY     87  75  67 VRB5      30.06R HX  96           
WICHITA INTL   PTSUNNY   91  65  41 N8        30.07R                  
WICHITA JABRA  MOSUNNY   86  71  60 E5        30.08R                  
WICHITA MCCONL MOSUNNY   89  69  51 N5        30.07R                  
WINFIELD       SUNNY     90  73  57 NE7       30.05S HX  98           
$$

KSZ007>012-019>026-033>040-048>060-102>105-211800-
NORTHEAST KANSAS
  
CITY           SKY/WX    TMP DP  RH WIND       PRES   REMARKS
CONCORDIA      MOSUNNY   74  70  87 SE6       30.06F                  
EMPORIA        MOSUNNY   84  70  62 VRB5      30.07R                  
LAWRENCE       SUNNY     82  70  66 S5        30.04R                  
MANHATTAN      MOSUNNY   78  70  76 VRB6      30.10R                  
OLATHE IND     MOSUNNY   81  70  69 SE7       30.05R                  
OLATHE EXE     SUNNY     81  72  74 S12       30.03S                  
SALINA         LGT RAIN  73  68  84 SE7       30.08F                  
TOPEKA BILLARD SUNNY     79  67  66 SW3       30.05R                  
TOPEKA FORBES  SUNNY     82  68  62 S7        30.05R                  
$$